Weather History for Logansport, IN

Change the Weather History Date:

Saturday, January 19, 2013

  Actual Average Record
Temperature  
Mean Temperature 40 °F -  
Max Temperature 48 °F 25 °F 48 °F (2013)
Min Temperature 33 °F 10 °F 10 °F (2014)
Degree Days  
Heating Degree Days 24    
Moisture  
Dew Point 30 °F    
Average Humidity 68    
Maximum Humidity 81    
Minimum Humidity 54    
Precipitation  
Precipitation 0.00 in - - ()
Sea Level Pressure  
Sea Level Pressure 29.94 in    
Wind  
Wind Speed 19 mph (SW)    
Max Wind Speed 26 mph    
Max Gust Speed 32 mph    
Visibility 10 miles    
Events      
Averages and records for this station are not official NWS values.
T = Trace of Precipitation, MM = Missing Value Source: NWS Daily Summary

Daily Weather History Graph

Daily Weather History Graph

Search for Another Location

Airport:

Trip Planner

Search our weather history database for the weather conditions in past years. The results will help you decide how hot, cold, wet, or windy it might be!

Date:

Astronomy

Jan. 19, 2013 Rise Set
Actual Time 8:05 AM EST 5:47 PM EST
Civil Twilight 7:35 AM EST 6:17 PM EST
Nautical Twilight 7:01 AM EST 6:51 PM EST
Astronomical Twilight 6:29 AM EST 7:23 PM EST
Moon 12:14 PM EST (1/19) 1:38 AM EST (1/19)
Length of Visible Light 10h 42m
Length of Day
9h 42m
First Quarter, 57% of the Moon is Illuminated
Jan 19
First Quarter
Jan 26
Full
Feb 3
Last Quarter
Feb 10
New
Feb 17
First Quarter

Hourly Weather History & Observations

Time (EST) Temp. Windchill Dew Point Humidity Pressure Visibility Wind Dir Wind Speed Gust Speed Precip Events Conditions
12:15 AM 35.6 °F 24.8 °F 26.6 °F 70% 30.07 in 10.0 mi SSW 19.6 mph 26.5 mph N/A   Clear
12:35 AM 35.6 °F 24.8 °F 26.6 °F 70% 30.07 in 10.0 mi SSW 19.6 mph 26.5 mph N/A   Clear
12:55 AM 35.6 °F 24.2 °F 26.6 °F 70% 30.06 in 10.0 mi SSW 21.9 mph 28.8 mph N/A   Clear
1:15 AM 35.6 °F 24.0 °F 26.6 °F 70% 30.06 in 10.0 mi SW 23.0 mph 31.1 mph N/A   Clear
1:35 AM 35.6 °F 24.5 °F 26.6 °F 70% 30.06 in 10.0 mi SW 20.7 mph 26.5 mph N/A   Clear
1:55 AM 35.6 °F 24.5 °F 26.6 °F 70% 30.06 in 10.0 mi SSW 20.7 mph 26.5 mph N/A   Clear
2:15 AM 35.6 °F 24.5 °F 26.6 °F 70% 30.06 in 10.0 mi SW 20.7 mph - N/A   Clear
2:35 AM 35.6 °F 25.2 °F 26.6 °F 70% 30.06 in 10.0 mi SW 18.4 mph 26.5 mph N/A   Clear
2:55 AM 35.6 °F 24.2 °F 26.6 °F 70% 30.07 in 10.0 mi SW 21.9 mph 27.6 mph N/A   Clear
3:15 AM 35.6 °F 24.8 °F 26.6 °F 70% 30.06 in 10.0 mi SSW 19.6 mph 26.5 mph N/A   Clear
3:35 AM 35.6 °F 24.2 °F 26.6 °F 70% 30.06 in 10.0 mi SSW 21.9 mph - N/A   Clear
3:55 AM 35.6 °F 24.5 °F 26.6 °F 70% 30.06 in 10.0 mi SW 20.7 mph 27.6 mph N/A   Clear
4:15 AM 35.6 °F 24.8 °F 26.6 °F 70% 30.05 in 10.0 mi SW 19.6 mph 25.3 mph N/A   Clear
4:35 AM 35.6 °F 25.5 °F 26.6 °F 70% 30.04 in 10.0 mi SSW 17.3 mph 21.9 mph N/A   Clear
4:55 AM 35.6 °F 25.5 °F 26.6 °F 70% 30.04 in 10.0 mi SW 17.3 mph - N/A   Clear
5:15 AM 35.6 °F 25.5 °F 26.6 °F 70% 30.03 in 10.0 mi SSW 17.3 mph 21.9 mph N/A   Clear
5:35 AM 35.6 °F 25.5 °F 26.6 °F 70% 30.03 in 10.0 mi SSW 17.3 mph - N/A   Clear
5:55 AM 35.6 °F 25.9 °F 26.6 °F 70% 30.03 in 10.0 mi SW 16.1 mph 31.1 mph N/A   Clear
6:15 AM 35.6 °F 25.9 °F 28.4 °F 75% 30.03 in 10.0 mi SW 16.1 mph - N/A   Clear
6:35 AM 35.6 °F 25.9 °F 28.4 °F 75% 30.03 in 10.0 mi SW 16.1 mph - N/A   Clear
7:35 AM 35.6 °F 26.2 °F 28.4 °F 75% 30.02 in 10.0 mi SSW 15.0 mph - N/A   Clear
7:55 AM 33.8 °F 23.9 °F 28.4 °F 81% 30.02 in 10.0 mi SSW 15.0 mph - N/A   Clear
8:15 AM 33.8 °F 24.8 °F 28.4 °F 81% 30.02 in 10.0 mi SSW 12.7 mph - N/A   Clear
8:55 AM 35.6 °F 26.6 °F 28.4 °F 75% 30.02 in 10.0 mi SSW 13.8 mph 21.9 mph N/A   Clear
9:15 AM 35.6 °F 26.6 °F 28.4 °F 75% 30.01 in 10.0 mi SSW 13.8 mph 21.9 mph N/A   Clear
9:35 AM 37.4 °F 28.5 °F 28.4 °F 70% 30.02 in 10.0 mi SSW 15.0 mph - N/A   Clear
10:35 AM 41.0 °F 32.8 °F 28.4 °F 61% 30.01 in 10.0 mi SSW 16.1 mph 24.2 mph N/A   Clear
10:55 AM 41.0 °F 32.5 °F 30.2 °F 65% 30.01 in 10.0 mi SW 17.3 mph 25.3 mph N/A   Clear
11:15 AM 42.8 °F 33.8 °F 30.2 °F 61% 29.99 in 10.0 mi SW 21.9 mph 25.3 mph N/A   Clear
11:35 AM 42.8 °F 34.0 °F 30.2 °F 61% 29.98 in 10.0 mi SW 20.7 mph 27.6 mph N/A   Clear
12:15 PM 44.6 °F 35.9 °F 30.2 °F 57% 29.95 in 10.0 mi SW 23.0 mph 28.8 mph N/A   Clear
12:35 PM 46.4 °F 38.7 °F 32.0 °F 57% 29.93 in 10.0 mi SW 20.7 mph 32.2 mph N/A   Clear
12:55 PM 46.4 °F 38.7 °F 32.0 °F 57% 29.92 in 10.0 mi SW 20.7 mph 28.8 mph N/A   Clear
1:15 PM 46.4 °F 38.1 °F 32.0 °F 57% 29.90 in 10.0 mi SW 24.2 mph 28.8 mph N/A   Clear
1:35 PM 48.2 °F - 32.0 °F 54% 29.88 in 10.0 mi SW 26.5 mph 32.2 mph N/A   Clear
1:55 PM 48.2 °F - 32.0 °F 54% 29.87 in 10.0 mi SW 20.7 mph - N/A   Clear
2:15 PM 48.2 °F - 32.0 °F 54% 29.87 in 10.0 mi SW 21.9 mph 31.1 mph N/A   Clear
2:35 PM 48.2 °F - 32.0 °F 54% 29.87 in 10.0 mi SW 23.0 mph 32.2 mph N/A   Clear
2:55 PM 48.2 °F - 32.0 °F 54% 29.86 in 10.0 mi SW 25.3 mph - N/A   Clear
3:15 PM 48.2 °F - 32.0 °F 54% 29.85 in 10.0 mi SW 26.5 mph 32.2 mph N/A   Clear
3:35 PM 48.2 °F - 32.0 °F 54% 29.85 in 10.0 mi SW 24.2 mph 28.8 mph N/A   Clear
3:55 PM 46.4 °F 39.0 °F 32.0 °F 57% 29.84 in 10.0 mi SW 19.6 mph 27.6 mph N/A   Clear
4:15 PM 46.4 °F 39.5 °F 32.0 °F 57% 29.84 in 10.0 mi SW 17.3 mph 25.3 mph N/A   Clear
4:35 PM 44.6 °F 37.8 °F 33.8 °F 66% 29.85 in 10.0 mi SW 15.0 mph - N/A   Clear
4:55 PM 44.6 °F 38.1 °F 33.8 °F 66% 29.84 in 10.0 mi SW 13.8 mph - N/A   Scattered Clouds
5:15 PM 44.6 °F 37.4 °F 32.0 °F 61% 29.83 in 10.0 mi SSW 16.1 mph - N/A   Clear
5:35 PM 42.8 °F 35.1 °F 32.0 °F 66% 29.83 in 10.0 mi SW 16.1 mph - N/A   Clear
5:55 PM 42.8 °F 34.5 °F 32.0 °F 66% 29.82 in 10.0 mi SSW 18.4 mph - N/A   Clear
6:15 PM 42.8 °F 34.8 °F 32.0 °F 66% 29.82 in 10.0 mi SW 17.3 mph - N/A   Clear
6:35 PM 42.8 °F 34.5 °F 32.0 °F 66% 29.82 in 10.0 mi SW 18.4 mph 23.0 mph N/A   Clear
6:55 PM 39.2 °F 31.6 °F 32.0 °F 75% 29.83 in 10.0 mi SW 12.7 mph - N/A   Clear
7:15 PM 41.0 °F 33.1 °F 32.0 °F 70% 29.83 in 10.0 mi SW 15.0 mph - N/A   Clear
7:35 PM 37.4 °F 29.8 °F 32.0 °F 81% 29.84 in 10.0 mi SW 11.5 mph - N/A   Clear
7:55 PM 39.2 °F 31.6 °F 32.0 °F 75% 29.84 in 10.0 mi SW 12.7 mph - N/A   Clear
8:15 PM 39.2 °F 31.6 °F 32.0 °F 75% 29.85 in 10.0 mi SW 12.7 mph - N/A   Clear
8:35 PM 39.2 °F 31.6 °F 33.8 °F 81% 29.84 in 10.0 mi SW 12.7 mph - N/A   Clear
8:55 PM 39.2 °F 31.6 °F 33.8 °F 81% 29.84 in 10.0 mi SW 12.7 mph - N/A   Clear
9:15 PM 41.0 °F 33.5 °F 33.8 °F 76% 29.84 in 10.0 mi SW 13.8 mph - N/A   Clear
9:35 PM 41.0 °F 33.1 °F 33.8 °F 76% 29.84 in 10.0 mi WSW 15.0 mph - N/A   Clear
9:55 PM 41.0 °F 32.2 °F 33.8 °F 76% 29.84 in 10.0 mi WSW 18.4 mph 25.3 mph N/A   Clear
10:15 PM 42.8 °F 33.3 °F 33.8 °F 70% 29.84 in 10.0 mi WSW 24.2 mph 32.2 mph N/A   Clear
10:35 PM 42.8 °F 33.3 °F 33.8 °F 70% 29.84 in 10.0 mi WSW 24.2 mph 29.9 mph N/A   Clear
10:55 PM 42.8 °F 33.8 °F 32.0 °F 66% 29.85 in 10.0 mi West 21.9 mph 32.2 mph N/A   Clear
11:15 PM 41.0 °F 31.4 °F 32.0 °F 70% 29.85 in 10.0 mi West 21.9 mph 31.1 mph N/A   Clear
11:35 PM 41.0 °F 30.9 °F 32.0 °F 70% 29.86 in 10.0 mi West 24.2 mph 31.1 mph N/A   Clear
11:55 PM 41.0 °F 32.2 °F 32.0 °F 70% 29.87 in 10.0 mi West 18.4 mph 29.9 mph N/A   Clear